Time,TemperatureF,DewpointF,PressureIn,WindDirection,WindDirectionDegrees,WindSpeedMPH,WindSpeedGustMPH,Humidity,HourlyPrecipIn,Conditions,Clouds,dailyrainin,SolarRadiationWatts/m^2,SoftwareType,DateUTC
2013-08-02 00:00:00,77.4,65.6,29.61,NNW,346,7.0,17.0,67,0.00,,---,0.00,0.00,VWS V14.01,2013-08-02 05:00:00,
2013-08-02 00:02:00,77.4,65.6,29.61,North,0,10.0,14.0,67,0.00,,---,0.00,0.00,VWS V14.01,2013-08-02 05:02:00,
2013-08-02 00:05:00,77.2,65.8,29.61,North,0,11.0,18.0,68,0.00,,---,0.00,0.00,VWS V14.01,2013-08-02 05:05:00,
2013-08-02 00:07:00,77.0,65.6,29.61,North,353,12.0,19.0,68,0.00,,---,0.00,0.00,VWS V14.01,2013-08-02 05:07:00,
2013-08-02 00:10:00,76.8,65.9,29.61,North,352,10.0,19.0,69,0.00,,---,0.00,0.00,VWS V14.01,2013-08-02 05:10:00,
2013-08-02 00:13:00,76.7,65.8,29.61,North,0,12.0,20.0,69,0.00,,---,0.00,0.00,VWS V14.01,2013-08-02 05:13:00,
2013-08-02 00:15:00,76.5,65.6,29.59,North,0,19.0,24.0,69,0.00,,---,0.00,0.00,VWS V14.01,2013-08-02 05:15:00,
2013-08-02 00:18:00,76.5,66.0,29.59,North,350,14.0,21.0,70,0.00,,---,0.00,0.00,VWS V14.01,2013-08-02 05:18:00,
2013-08-02 00:20:00,76.5,65.6,29.59,WNW,284,17.0,25.0,69,0.00,,---,0.00,0.00,VWS V14.01,2013-08-02 05:20:00,
2013-08-02 00:23:00,76.7,65.8,29.59,WNW,285,20.0,30.0,69,0.00,,---,0.00,0.00,VWS V14.01,2013-08-02 05:23:00,
2013-08-02 00:25:00,76.8,65.9,29.59,NW,304,21.0,30.0,69,0.00,,---,0.00,0.00,VWS V14.01,2013-08-02 05:25:00,
2013-08-02 00:28:00,77.0,65.6,29.59,North,0,21.0,22.0,68,0.00,,---,0.00,0.00,VWS V14.01,2013-08-02 05:28:00,
2013-08-02 00:30:00,77.2,65.8,29.59,North,354,18.0,25.0,68,0.00,,---,0.00,0.00,VWS V14.01,2013-08-02 05:30:00,
2013-08-02 00:33:00,77.4,66.0,29.59,NNW,329,13.0,27.0,68,0.00,,---,0.00,0.00,VWS V14.01,2013-08-02 05:33:00,
2013-08-02 00:35:00,77.4,66.0,29.59,North,350,20.0,27.0,68,0.00,,---,0.00,0.00,VWS V14.01,2013-08-02 05:35:00,
2013-08-02 00:38:00,77.4,66.0,29.59,NNW,343,20.0,20.0,68,0.00,,---,0.00,0.00,VWS V14.01,2013-08-02 05:38:00,
2013-08-02 00:40:00,77.4,66.0,29.59,North,0,11.0,22.0,68,0.00,,---,0.00,0.00,VWS V14.01,2013-08-02 05:40:00,
2013-08-02 00:43:00,77.2,66.2,29.59,NNW,329,14.0,27.0,69,0.00,,---,0.00,0.00,VWS V14.01,2013-08-02 05:43:00,
2013-08-02 00:45:00,76.7,66.2,29.58,NNW,344,14.0,27.0,70,0.00,,---,0.00,0.00,VWS V14.01,2013-08-02 05:45:00,
2013-08-02 00:48:00,75.8,66.9,29.58,North,357,22.0,30.0,74,0.00,,---,0.00,0.00,VWS V14.01,2013-08-02 05:48:00,
2013-08-02 00:50:00,75.4,66.9,29.58,WNW,298,12.0,30.0,75,0.00,,---,0.00,0.00,VWS V14.01,2013-08-02 05:50:00,
2013-08-02 00:53:00,75.3,66.8,29.58,WNW,288,21.0,27.0,75,0.00,,---,0.00,0.00,VWS V14.01,2013-08-02 05:53:00,
2013-08-02 00:55:00,75.3,66.8,29.58,NW,316,17.0,29.0,75,0.00,,---,0.00,0.00,VWS V14.01,2013-08-02 05:55:00,
2013-08-02 00:59:00,75.6,66.3,29.58,North,356,25.0,27.0,73,0.00,,---,0.00,0.00,VWS V14.01,2013-08-02 05:59:00,
2013-08-02 01:00:00,75.8,66.5,29.58,North,0,27.0,27.0,73,0.00,,---,0.00,0.00,VWS V14.01,2013-08-02 06:00:00,
2013-08-02 01:04:00,75.8,66.1,29.58,NW,306,19.0,27.0,72,0.00,,---,0.00,0.00,VWS V14.01,2013-08-02 06:04:00,
2013-08-02 01:05:00,75.8,66.5,29.58,WSW,257,16.0,27.0,73,0.00,,---,0.00,0.00,VWS V14.01,2013-08-02 06:05:00,
2013-08-02 01:09:00,75.1,66.6,29.58,NW,322,16.0,21.0,75,0.00,,---,0.00,0.00,VWS V14.01,2013-08-02 06:09:00,
2013-08-02 01:10:00,74.9,66.8,29.58,WSW,241,24.0,24.0,76,0.00,,---,0.00,0.00,VWS V14.01,2013-08-02 06:10:00,
2013-08-02 01:14:00,74.6,66.9,29.58,West,277,17.0,24.0,77,0.01,,---,0.01,0.00,VWS V14.01,2013-08-02 06:14:00,
2013-08-02 01:15:00,74.4,67.1,29.61,WNW,298,14.0,24.0,78,0.01,,---,0.01,0.00,VWS V14.01,2013-08-02 06:15:00,
2013-08-02 01:19:00,73.9,67.0,29.61,WNW,282,16.0,20.0,79,0.02,,---,0.02,0.00,VWS V14.01,2013-08-02 06:19:00,
2013-08-02 01:20:00,73.9,67.3,29.61,North,357,10.0,20.0,80,0.02,,---,0.02,0.00,VWS V14.01,2013-08-02 06:20:00,
2013-08-02 01:24:00,73.7,67.2,29.61,North,356,12.0,16.0,80,0.02,,---,0.02,0.00,VWS V14.01,2013-08-02 06:24:00,
2013-08-02 01:25:00,73.7,67.2,29.61,North,356,13.0,16.0,80,0.02,,---,0.02,0.00,VWS V14.01,2013-08-02 06:25:00,
2013-08-02 01:30:00,73.7,67.2,29.62,NNW,338,6.0,12.0,80,0.02,,---,0.02,0.00,VWS V14.01,2013-08-02 06:30:00,
2013-08-02 01:35:00,73.9,67.0,29.62,West,270,11.0,16.0,79,0.02,,---,0.02,0.00,VWS V14.01,2013-08-02 06:35:00,
2013-08-02 01:40:00,74.0,67.1,29.62,North,0,8.0,14.0,79,0.02,,---,0.02,0.00,VWS V14.01,2013-08-02 06:40:00,
2013-08-02 01:45:00,73.0,67.9,29.65,NNW,338,18.0,26.0,84,0.02,,---,0.02,0.00,VWS V14.01,2013-08-02 06:45:00,
2013-08-02 01:50:00,72.5,68.1,29.65,North,0,14.0,19.0,86,0.02,,---,0.02,0.00,VWS V14.01,2013-08-02 06:50:00,
2013-08-02 01:55:00,72.7,68.3,29.65,NNW,338,12.0,20.0,86,0.02,,---,0.02,0.00,VWS V14.01,2013-08-02 06:55:00,
2013-08-02 02:00:00,73.5,67.0,29.65,North,0,8.0,17.0,80,0.02,,---,0.02,0.00,VWS V14.01,2013-08-02 07:00:00,
2013-08-02 02:05:00,74.4,66.7,29.65,North,0,10.0,14.0,77,0.02,,---,0.02,0.00,VWS V14.01,2013-08-02 07:05:00,
2013-08-02 02:10:00,75.1,66.6,29.65,North,0,11.0,18.0,75,0.02,,---,0.02,0.00,VWS V14.01,2013-08-02 07:10:00,
2013-08-02 02:15:00,75.1,67.0,29.64,North,0,9.0,16.0,76,0.02,,---,0.02,0.00,VWS V14.01,2013-08-02 07:15:00,
2013-08-02 02:20:00,74.7,66.6,29.64,NNW,338,3.0,6.0,76,0.01,,---,0.02,0.00,VWS V14.01,2013-08-02 07:20:00,
2013-08-02 02:25:00,74.7,67.4,29.64,NNW,338,7.0,9.0,78,0.00,,---,0.02,0.00,VWS V14.01,2013-08-02 07:25:00,
2013-08-02 02:30:00,74.2,67.3,29.66,North,0,5.0,7.0,79,0.00,,---,0.02,0.00,VWS V14.01,2013-08-02 07:30:00,
2013-08-02 02:35:00,74.0,67.4,29.66,WSW,248,1.0,5.0,80,0.00,,---,0.02,0.00,VWS V14.01,2013-08-02 07:35:00,
2013-08-02 02:40:00,74.0,67.4,29.66,North,0,6.0,10.0,80,0.00,,---,0.02,0.00,VWS V14.01,2013-08-02 07:40:00,
2013-08-02 02:45:00,73.9,67.3,29.64,North,0,8.0,12.0,80,0.00,,---,0.02,0.00,VWS V14.01,2013-08-02 07:45:00,
2013-08-02 02:50:00,73.5,67.3,29.64,North,0,3.0,6.0,81,0.00,,---,0.02,0.00,VWS V14.01,2013-08-02 07:50:00,
2013-08-02 02:55:00,73.5,67.3,29.64,North,0,4.0,7.0,81,0.00,,---,0.02,0.00,VWS V14.01,2013-08-02 07:55:00,
2013-08-02 03:00:00,73.2,67.4,29.65,North,0,7.0,10.0,82,0.00,,---,0.02,0.00,VWS V14.01,2013-08-02 08:00:00,
2013-08-02 03:05:00,73.0,67.5,29.65,North,0,8.0,10.0,83,0.00,,---,0.02,0.00,VWS V14.01,2013-08-02 08:05:00,
2013-08-02 03:10:00,73.0,67.9,29.65,North,0,7.0,10.0,84,0.00,,---,0.02,0.00,VWS V14.01,2013-08-02 08:10:00,
2013-08-02 03:15:00,73.0,67.9,29.68,North,0,6.0,11.0,84,0.00,,---,0.02,0.00,VWS V14.01,2013-08-02 08:15:00,
2013-08-02 03:20:00,72.3,67.9,29.68,North,0,12.0,17.0,86,0.02,,---,0.04,0.00,VWS V14.01,2013-08-02 08:20:00,
2013-08-02 03:25:00,71.8,68.1,29.68,North,0,9.0,12.0,88,0.02,,---,0.04,0.00,VWS V14.01,2013-08-02 08:25:00,
2013-08-02 03:30:00,71.6,68.2,29.68,North,0,10.0,14.0,89,0.03,,---,0.05,0.00,VWS V14.01,2013-08-02 08:30:00,
2013-08-02 03:35:00,70.9,67.8,29.68,North,0,16.0,24.0,90,0.03,,---,0.05,0.00,VWS V14.01,2013-08-02 08:35:00,
2013-08-02 03:40:00,70.6,68.2,29.68,North,0,19.0,26.0,92,0.03,,---,0.05,0.00,VWS V14.01,2013-08-02 08:40:00,
2013-08-02 03:45:00,68.9,66.5,29.70,NNW,338,20.0,34.0,92,0.04,,---,0.06,0.00,VWS V14.01,2013-08-02 08:45:00,
2013-08-02 03:50:00,68.3,66.2,29.70,North,0,18.0,30.0,93,0.13,,---,0.15,0.00,VWS V14.01,2013-08-02 08:50:00,
2013-08-02 03:55:00,66.8,64.7,29.70,North,0,19.0,25.0,93,0.16,,---,0.18,0.00,VWS V14.01,2013-08-02 08:55:00,
2013-08-02 04:00:00,65.8,63.7,29.74,NNW,338,23.0,28.0,93,0.16,,---,0.18,0.00,VWS V14.01,2013-08-02 09:00:00,
2013-08-02 04:05:00,65.6,64.4,29.74,North,0,17.0,22.0,96,0.16,,---,0.18,0.00,VWS V14.01,2013-08-02 09:05:00,
2013-08-02 04:10:00,65.5,64.3,29.74,North,0,21.0,30.0,96,0.16,,---,0.18,0.00,VWS V14.01,2013-08-02 09:10:00,
2013-08-02 04:15:00,65.3,64.4,29.73,North,0,25.0,28.0,97,0.16,,---,0.18,0.00,VWS V14.01,2013-08-02 09:15:00,
2013-08-02 04:20:00,65.3,64.4,29.73,NNW,338,25.0,31.0,97,0.16,,---,0.18,0.00,VWS V14.01,2013-08-02 09:20:00,
2013-08-02 04:25:00,65.3,64.4,29.73,North,0,24.0,30.0,97,0.14,,---,0.18,0.00,VWS V14.01,2013-08-02 09:25:00,
2013-08-02 04:30:00,65.2,64.3,29.74,North,0,22.0,28.0,97,0.14,,---,0.18,0.00,VWS V14.01,2013-08-02 09:30:00,
2013-08-02 04:35:00,65.0,63.8,29.74,North,0,20.0,26.0,96,0.13,,---,0.18,0.00,VWS V14.01,2013-08-02 09:35:00,
2013-08-02 04:40:00,64.8,63.6,29.74,North,0,19.0,25.0,96,0.13,,---,0.18,0.00,VWS V14.01,2013-08-02 09:40:00,
2013-08-02 04:45:00,64.8,63.3,29.72,North,0,19.0,28.0,95,0.13,,---,0.18,0.00,VWS V14.01,2013-08-02 09:45:00,
2013-08-02 04:50:00,64.8,63.0,29.72,North,0,15.0,22.0,94,0.12,,---,0.18,0.00,VWS V14.01,2013-08-02 09:50:00,
2013-08-02 04:55:00,65.0,62.9,29.72,North,0,18.0,27.0,93,0.03,,---,0.18,0.00,VWS V14.01,2013-08-02 09:55:00,
2013-08-02 05:00:00,65.0,62.9,29.69,North,0,18.0,27.0,93,0.00,,---,0.18,0.00,VWS V14.01,2013-08-02 10:00:00,
2013-08-02 05:05:00,65.2,63.1,29.69,North,0,18.0,24.0,93,0.00,,---,0.18,0.00,VWS V14.01,2013-08-02 10:05:00,
2013-08-02 05:10:00,65.0,62.9,29.69,NNW,338,16.0,22.0,93,0.00,,---,0.18,0.00,VWS V14.01,2013-08-02 10:10:00,
2013-08-02 05:15:00,65.0,62.9,29.68,North,0,16.0,22.0,93,0.00,,---,0.18,0.00,VWS V14.01,2013-08-02 10:15:00,
2013-08-02 05:20:00,65.0,62.9,29.68,North,0,14.0,21.0,93,0.00,,---,0.18,0.00,VWS V14.01,2013-08-02 10:20:00,
2013-08-02 05:25:00,65.0,62.6,29.68,North,0,14.0,21.0,92,0.00,,---,0.18,0.00,VWS V14.01,2013-08-02 10:25:00,
2013-08-02 05:30:00,65.0,62.6,29.68,North,0,12.0,18.0,92,0.00,,---,0.18,0.00,VWS V14.01,2013-08-02 10:30:00,
2013-08-02 05:35:00,65.0,62.6,29.68,North,0,13.0,18.0,92,0.00,,---,0.18,0.00,VWS V14.01,2013-08-02 10:35:00,
2013-08-02 05:40:00,65.0,62.6,29.68,North,0,11.0,14.0,92,0.00,,---,0.18,0.00,VWS V14.01,2013-08-02 10:40:00,
2013-08-02 05:45:00,65.0,62.9,29.68,North,0,11.0,16.0,93,0.00,,---,0.18,0.00,VWS V14.01,2013-08-02 10:45:00,
2013-08-02 05:50:00,65.0,63.2,29.68,North,0,12.0,17.0,94,0.00,,---,0.18,0.00,VWS V14.01,2013-08-02 10:50:00,
2013-08-02 05:55:00,65.2,63.4,29.68,North,0,12.0,17.0,94,0.00,,---,0.18,0.00,VWS V14.01,2013-08-02 10:55:00,
2013-08-02 06:00:00,65.0,63.2,29.67,North,0,11.0,17.0,94,0.00,,---,0.18,0.00,VWS V14.01,2013-08-02 11:00:00,
2013-08-02 06:05:00,65.0,62.9,29.67,North,0,12.0,16.0,93,0.00,,---,0.18,0.00,VWS V14.01,2013-08-02 11:05:00,
2013-08-02 06:10:00,65.0,62.9,29.67,North,0,14.0,17.0,93,0.00,,---,0.18,0.00,VWS V14.01,2013-08-02 11:10:00,
2013-08-02 06:15:00,65.0,62.6,29.67,North,0,14.0,19.0,92,0.00,,---,0.18,0.00,VWS V14.01,2013-08-02 11:15:00,
2013-08-02 06:20:00,65.0,62.6,29.67,North,0,12.0,19.0,92,0.00,,---,0.18,0.00,VWS V14.01,2013-08-02 11:20:00,
2013-08-02 06:25:00,65.0,62.6,29.67,North,0,12.0,16.0,92,0.00,,---,0.18,0.00,VWS V14.01,2013-08-02 11:25:00,
2013-08-02 06:30:00,65.0,62.6,29.66,North,0,10.0,15.0,92,0.00,,---,0.18,0.00,VWS V14.01,2013-08-02 11:30:00,
2013-08-02 06:35:00,65.0,62.6,29.66,North,0,10.0,13.0,92,0.00,,---,0.18,0.00,VWS V14.01,2013-08-02 11:35:00,
2013-08-02 06:40:00,65.0,62.6,29.66,North,0,11.0,18.0,92,0.00,,---,0.18,0.00,VWS V14.01,2013-08-02 11:40:00,
2013-08-02 06:45:00,65.2,62.8,29.64,North,0,12.0,18.0,92,0.00,,---,0.18,7.00,VWS V14.01,2013-08-02 11:45:00,
2013-08-02 06:50:00,65.2,62.8,29.64,North,0,16.0,21.0,92,0.00,,---,0.18,9.00,VWS V14.01,2013-08-02 11:50:00,
2013-08-02 06:55:00,65.2,62.8,29.64,North,0,16.0,20.0,92,0.00,,---,0.18,11.00,VWS V14.01,2013-08-02 11:55:00,
2013-08-02 07:00:00,65.2,63.1,29.64,North,0,16.0,20.0,93,0.00,,---,0.18,15.00,VWS V14.01,2013-08-02 12:00:00,
2013-08-02 07:05:00,65.2,63.1,29.64,North,0,15.0,20.0,93,0.00,,---,0.18,21.00,VWS V14.01,2013-08-02 12:05:00,
2013-08-02 07:10:00,65.2,63.1,29.64,North,0,13.0,19.0,93,0.00,,---,0.18,28.00,VWS V14.01,2013-08-02 12:10:00,
2013-08-02 07:15:00,65.3,63.2,29.63,North,0,13.0,17.0,93,0.00,,---,0.18,35.00,VWS V14.01,2013-08-02 12:15:00,
2013-08-02 07:20:00,65.5,63.4,29.63,North,0,14.0,17.0,93,0.00,,---,0.18,56.00,VWS V14.01,2013-08-02 12:20:00,
2013-08-02 07:25:00,65.6,63.5,29.63,North,0,14.0,18.0,93,0.00,,---,0.18,104.00,VWS V14.01,2013-08-02 12:25:00,
2013-08-02 07:30:00,66.0,63.9,29.63,North,0,16.0,20.0,93,0.00,,---,0.18,104.00,VWS V14.01,2013-08-02 12:30:00,
2013-08-02 07:35:00,66.1,64.0,29.63,North,0,14.0,17.0,93,0.00,,---,0.18,102.00,VWS V14.01,2013-08-02 12:35:00,
2013-08-02 07:40:00,66.3,64.2,29.63,North,0,14.0,18.0,93,0.00,,---,0.18,102.00,VWS V14.01,2013-08-02 12:40:00,
2013-08-02 07:45:00,66.4,64.3,29.63,North,0,13.0,18.0,93,0.00,,---,0.18,148.00,VWS V14.01,2013-08-02 12:45:00,
2013-08-02 07:50:00,66.6,64.2,29.63,North,0,14.0,17.0,92,0.00,,---,0.18,165.00,VWS V14.01,2013-08-02 12:50:00,
2013-08-02 07:55:00,66.8,64.4,29.63,North,0,15.0,19.0,92,0.00,,---,0.18,165.00,VWS V14.01,2013-08-02 12:55:00,
2013-08-02 08:00:00,66.9,64.2,29.62,North,0,13.0,19.0,91,0.00,,---,0.18,165.00,VWS V14.01,2013-08-02 13:00:00,
2013-08-02 08:05:00,67.3,64.6,29.62,North,0,12.0,16.0,91,0.00,,---,0.18,201.00,VWS V14.01,2013-08-02 13:05:00,
2013-08-02 08:10:00,67.6,64.6,29.62,North,0,13.0,17.0,90,0.00,,---,0.18,200.00,VWS V14.01,2013-08-02 13:10:00,
2013-08-02 08:15:00,67.9,64.5,29.63,North,0,13.0,17.0,89,0.00,,---,0.18,204.00,VWS V14.01,2013-08-02 13:15:00,
2013-08-02 08:20:00,68.3,64.6,29.63,North,0,12.0,17.0,88,0.00,,---,0.18,231.00,VWS V14.01,2013-08-02 13:20:00,
2013-08-02 08:25:00,68.6,64.6,29.63,North,0,13.0,18.0,87,0.00,,---,0.18,247.00,VWS V14.01,2013-08-02 13:25:00,
2013-08-02 08:30:00,68.9,64.9,29.63,North,0,13.0,18.0,87,0.00,,---,0.18,267.00,VWS V14.01,2013-08-02 13:30:00,
2013-08-02 08:35:00,69.1,64.4,29.63,North,0,12.0,18.0,85,0.00,,---,0.18,277.00,VWS V14.01,2013-08-02 13:35:00,
2013-08-02 08:40:00,69.4,64.7,29.63,North,0,13.0,19.0,85,0.00,,---,0.18,299.00,VWS V14.01,2013-08-02 13:40:00,
2013-08-02 08:45:00,69.8,64.8,29.62,North,0,14.0,20.0,84,0.00,,---,0.18,311.00,VWS V14.01,2013-08-02 13:45:00,
2013-08-02 08:50:00,70.1,64.7,29.62,North,0,15.0,20.0,83,0.00,,---,0.18,339.00,VWS V14.01,2013-08-02 13:50:00,
2013-08-02 08:55:00,70.3,64.9,29.62,North,0,17.0,20.0,83,0.00,,---,0.18,330.00,VWS V14.01,2013-08-02 13:55:00,
2013-08-02 09:00:00,70.8,65.0,29.62,North,0,16.0,22.0,82,0.00,,---,0.18,368.00,VWS V14.01,2013-08-02 14:00:00,
2013-08-02 09:05:00,71.3,65.5,29.62,North,0,14.0,19.0,82,0.00,,---,0.18,371.00,VWS V14.01,2013-08-02 14:05:00,
2013-08-02 09:10:00,71.8,66.0,29.62,North,0,13.0,18.0,82,0.00,,---,0.18,377.00,VWS V14.01,2013-08-02 14:10:00,
2013-08-02 09:15:00,72.1,66.3,29.62,North,0,11.0,19.0,82,0.00,,---,0.18,396.00,VWS V14.01,2013-08-02 14:15:00,
2013-08-02 09:20:00,72.8,67.0,29.62,North,0,10.0,17.0,82,0.00,,---,0.18,412.00,VWS V14.01,2013-08-02 14:20:00,
2013-08-02 09:25:00,73.3,66.4,29.62,North,0,9.0,14.0,79,0.00,,---,0.18,422.00,VWS V14.01,2013-08-02 14:25:00,
2013-08-02 09:30:00,74.0,67.1,29.61,North,0,6.0,7.0,79,0.00,,---,0.18,429.00,VWS V14.01,2013-08-02 14:30:00,
2013-08-02 09:35:00,74.6,66.9,29.61,North,0,6.0,10.0,77,0.00,,---,0.18,445.00,VWS V14.01,2013-08-02 14:35:00,
2013-08-02 09:40:00,75.1,67.0,29.61,North,0,7.0,12.0,76,0.00,,---,0.18,468.00,VWS V14.01,2013-08-02 14:40:00,
2013-08-02 09:45:00,75.6,67.5,29.60,North,0,8.0,16.0,76,0.00,,---,0.18,496.00,VWS V14.01,2013-08-02 14:45:00,
2013-08-02 09:50:00,76.3,67.8,29.60,North,0,7.0,11.0,75,0.00,,---,0.18,507.00,VWS V14.01,2013-08-02 14:50:00,
2013-08-02 09:55:00,76.8,68.3,29.60,North,0,7.0,12.0,75,0.00,,---,0.18,510.00,VWS V14.01,2013-08-02 14:55:00,
2013-08-02 10:00:00,77.4,68.5,29.60,North,0,10.0,17.0,74,0.00,,---,0.18,536.00,VWS V14.01,2013-08-02 15:00:00,
2013-08-02 10:05:00,77.4,68.9,29.60,North,0,10.0,16.0,75,0.00,,---,0.18,546.00,VWS V14.01,2013-08-02 15:05:00,
2013-08-02 10:10:00,77.7,68.8,29.60,North,0,9.0,17.0,74,0.00,,---,0.18,557.00,VWS V14.01,2013-08-02 15:10:00,
2013-08-02 10:15:00,78.1,69.1,29.60,North,0,8.0,14.0,74,0.00,,---,0.18,565.00,VWS V14.01,2013-08-02 15:15:00,
2013-08-02 10:20:00,78.6,69.6,29.60,North,0,8.0,19.0,74,0.00,,---,0.18,577.00,VWS V14.01,2013-08-02 15:20:00,
2013-08-02 10:25:00,79.2,69.8,29.60,North,0,6.0,16.0,73,0.00,,---,0.18,590.00,VWS V14.01,2013-08-02 15:25:00,
2013-08-02 10:30:00,79.2,69.4,29.60,North,0,9.0,17.0,72,0.00,,---,0.18,602.00,VWS V14.01,2013-08-02 15:30:00,
2013-08-02 10:35:00,79.4,70.4,29.60,North,0,9.0,17.0,74,0.00,,---,0.18,619.00,VWS V14.01,2013-08-02 15:35:00,
2013-08-02 10:40:00,79.8,70.8,29.60,North,0,8.0,13.0,74,0.00,,---,0.18,639.00,VWS V14.01,2013-08-02 15:40:00,
2013-08-02 10:45:00,79.9,70.5,29.60,North,0,6.0,10.0,73,0.00,,---,0.18,639.00,VWS V14.01,2013-08-02 15:45:00,
2013-08-02 10:50:00,80.3,70.9,29.60,North,0,7.0,12.0,73,0.00,,---,0.18,658.00,VWS V14.01,2013-08-02 15:50:00,
2013-08-02 10:55:00,80.9,71.0,29.60,North,0,6.0,13.0,72,0.00,,---,0.18,671.00,VWS V14.01,2013-08-02 15:55:00,
2013-08-02 11:00:00,81.2,71.3,29.60,North,0,8.0,14.0,72,0.00,,---,0.18,679.00,VWS V14.01,2013-08-02 16:00:00,
2013-08-02 11:05:00,81.6,71.7,29.60,North,0,7.0,13.0,72,0.00,,---,0.18,694.00,VWS V14.01,2013-08-02 16:05:00,
2013-08-02 11:10:00,82.2,71.4,29.60,North,0,6.0,10.0,70,0.00,,---,0.18,701.00,VWS V14.01,2013-08-02 16:10:00,
2013-08-02 11:15:00,82.4,71.6,29.60,North,0,6.0,13.0,70,0.00,,---,0.18,713.00,VWS V14.01,2013-08-02 16:15:00,
2013-08-02 11:20:00,82.6,71.8,29.60,North,0,8.0,17.0,70,0.00,,---,0.18,718.00,VWS V14.01,2013-08-02 16:20:00,
2013-08-02 11:25:00,82.8,72.0,29.60,North,0,10.0,20.0,70,0.00,,---,0.18,728.00,VWS V14.01,2013-08-02 16:25:00,
2013-08-02 11:30:00,83.0,71.8,29.59,North,0,9.0,17.0,69,0.00,,---,0.18,738.00,VWS V14.01,2013-08-02 16:30:00,
2013-08-02 11:35:00,83.8,72.1,29.59,North,0,7.0,12.0,68,0.00,,---,0.18,748.00,VWS V14.01,2013-08-02 16:35:00,
2013-08-02 11:40:00,84.0,72.3,29.59,North,0,7.0,13.0,68,0.00,,---,0.18,760.00,VWS V14.01,2013-08-02 16:40:00,
2013-08-02 11:45:00,84.0,72.3,29.59,North,0,9.0,14.0,68,0.00,,---,0.18,769.00,VWS V14.01,2013-08-02 16:45:00,
2013-08-02 11:50:00,84.3,73.0,29.59,North,0,9.0,14.0,69,0.00,,---,0.18,780.00,VWS V14.01,2013-08-02 16:50:00,
2013-08-02 11:55:00,84.7,72.5,29.59,North,0,9.0,16.0,67,0.00,,---,0.18,787.00,VWS V14.01,2013-08-02 16:55:00,
2013-08-02 12:00:00,85.1,72.9,29.59,North,0,9.0,14.0,67,0.00,,---,0.18,793.00,VWS V14.01,2013-08-02 17:00:00,
2013-08-02 12:05:00,85.3,73.1,29.59,North,0,8.0,14.0,67,0.00,,---,0.18,800.00,VWS V14.01,2013-08-02 17:05:00,
2013-08-02 12:10:00,85.3,72.2,29.59,North,0,6.0,12.0,65,0.00,,---,0.18,808.00,VWS V14.01,2013-08-02 17:10:00,
2013-08-02 12:15:00,85.7,72.6,29.59,North,0,9.0,15.0,65,0.00,,---,0.18,816.00,VWS V14.01,2013-08-02 17:15:00,
2013-08-02 12:20:00,85.7,73.0,29.59,North,0,10.0,14.0,66,0.00,,---,0.18,816.00,VWS V14.01,2013-08-02 17:20:00,
2013-08-02 12:25:00,85.7,72.6,29.59,North,0,10.0,18.0,65,0.00,,---,0.18,825.00,VWS V14.01,2013-08-02 17:25:00,
2013-08-02 12:30:00,85.7,73.0,29.59,North,0,8.0,16.0,66,0.00,,---,0.18,829.00,VWS V14.01,2013-08-02 17:30:00,
2013-08-02 12:35:00,86.1,73.4,29.59,North,0,11.0,18.0,66,0.00,,---,0.18,839.00,VWS V14.01,2013-08-02 17:35:00,
2013-08-02 12:40:00,86.3,72.7,29.59,North,0,9.0,14.0,64,0.00,,---,0.18,839.00,VWS V14.01,2013-08-02 17:40:00,
2013-08-02 12:45:00,86.7,73.1,29.58,North,0,8.0,13.0,64,0.00,,---,0.18,839.00,VWS V14.01,2013-08-02 17:45:00,
2013-08-02 12:50:00,87.0,73.4,29.58,North,0,10.0,17.0,64,0.00,,---,0.18,847.00,VWS V14.01,2013-08-02 17:50:00,
2013-08-02 12:55:00,87.2,73.6,29.58,North,0,9.0,13.0,64,0.00,,---,0.18,853.00,VWS V14.01,2013-08-02 17:55:00,
2013-08-02 13:00:00,87.4,73.3,29.59,North,0,11.0,17.0,63,0.00,,---,0.18,875.00,VWS V14.01,2013-08-02 18:00:00,
2013-08-02 13:05:00,87.4,73.3,29.59,North,0,12.0,19.0,63,0.00,,---,0.18,857.00,VWS V14.01,2013-08-02 18:05:00,
2013-08-02 13:10:00,87.6,74.4,29.59,North,0,10.0,16.0,65,0.00,,---,0.18,562.00,VWS V14.01,2013-08-02 18:10:00,
2013-08-02 13:15:00,87.4,73.3,29.58,North,0,14.0,22.0,63,0.00,,---,0.18,191.00,VWS V14.01,2013-08-02 18:15:00,
2013-08-02 13:20:00,87.2,73.1,29.58,North,0,13.0,19.0,63,0.00,,---,0.18,206.00,VWS V14.01,2013-08-02 18:20:00,
2013-08-02 13:25:00,87.6,73.5,29.58,North,0,12.0,22.0,63,0.00,,---,0.18,206.00,VWS V14.01,2013-08-02 18:25:00,
2013-08-02 13:30:00,87.6,73.5,29.58,North,0,10.0,18.0,63,0.00,,---,0.18,435.00,VWS V14.01,2013-08-02 18:30:00,
2013-08-02 13:35:00,87.6,73.5,29.58,North,0,12.0,18.0,63,0.00,,---,0.18,370.00,VWS V14.01,2013-08-02 18:35:00,
2013-08-02 13:40:00,87.6,72.5,29.58,North,0,11.0,20.0,61,0.00,,---,0.18,479.00,VWS V14.01,2013-08-02 18:40:00,
2013-08-02 13:45:00,88.0,73.8,29.58,North,0,8.0,13.0,63,0.00,,---,0.18,477.00,VWS V14.01,2013-08-02 18:45:00,
2013-08-02 13:50:00,88.0,73.4,29.58,North,0,7.0,15.0,62,0.00,,---,0.18,407.00,VWS V14.01,2013-08-02 18:50:00,
2013-08-02 13:55:00,87.6,73.0,29.58,North,0,8.0,13.0,62,0.00,,---,0.18,537.00,VWS V14.01,2013-08-02 18:55:00,
2013-08-02 14:00:00,87.4,73.3,29.58,North,0,8.0,14.0,63,0.00,,---,0.18,569.00,VWS V14.01,2013-08-02 19:00:00,
2013-08-02 14:05:00,87.8,73.2,29.58,North,0,6.0,8.0,62,0.00,,---,0.18,575.00,VWS V14.01,2013-08-02 19:05:00,
2013-08-02 14:10:00,88.0,73.4,29.58,North,0,7.0,13.0,62,0.00,,---,0.18,575.00,VWS V14.01,2013-08-02 19:10:00,
2013-08-02 14:15:00,88.4,73.2,29.58,North,0,8.0,11.0,61,0.00,,---,0.18,575.00,VWS V14.01,2013-08-02 19:15:00,
2013-08-02 14:20:00,88.2,73.1,29.58,North,0,8.0,12.0,61,0.00,,---,0.18,350.00,VWS V14.01,2013-08-02 19:20:00,
2013-08-02 14:25:00,88.0,72.4,29.58,North,0,5.0,8.0,60,0.00,,---,0.18,355.00,VWS V14.01,2013-08-02 19:25:00,
2013-08-02 14:30:00,88.0,73.4,29.58,North,0,5.0,9.0,62,0.00,,---,0.18,355.00,VWS V14.01,2013-08-02 19:30:00,
2013-08-02 14:35:00,87.4,72.8,29.58,North,0,8.0,9.0,62,0.00,,---,0.18,355.00,VWS V14.01,2013-08-02 19:35:00,
2013-08-02 14:40:00,87.0,73.4,29.58,North,0,8.0,11.0,64,0.00,,---,0.18,505.00,VWS V14.01,2013-08-02 19:40:00,
2013-08-02 14:45:00,87.6,73.0,29.58,North,0,2.0,7.0,62,0.00,,---,0.18,505.00,VWS V14.01,2013-08-02 19:45:00,
2013-08-02 14:50:00,88.4,73.7,29.58,North,0,5.0,8.0,62,0.00,,---,0.18,505.00,VWS V14.01,2013-08-02 19:50:00,
2013-08-02 14:55:00,88.4,73.2,29.58,North,0,8.0,12.0,61,0.00,,---,0.18,505.00,VWS V14.01,2013-08-02 19:55:00,
2013-08-02 15:00:00,88.2,73.5,29.58,North,0,6.0,10.0,62,0.00,,---,0.18,505.00,VWS V14.01,2013-08-02 20:00:00,
2013-08-02 15:05:00,87.8,73.2,29.58,North,0,6.0,9.0,62,0.00,,---,0.18,262.00,VWS V14.01,2013-08-02 20:05:00,
2013-08-02 15:10:00,87.6,73.5,29.58,North,0,6.0,9.0,63,0.00,,---,0.18,242.00,VWS V14.01,2013-08-02 20:10:00,
2013-08-02 15:15:00,87.2,73.6,29.59,North,0,6.0,10.0,64,0.00,,---,0.18,253.00,VWS V14.01,2013-08-02 20:15:00,
2013-08-02 15:20:00,87.4,72.8,29.59,North,0,5.0,9.0,62,0.00,,---,0.18,330.00,VWS V14.01,2013-08-02 20:20:00,
2013-08-02 15:25:00,88.0,73.4,29.59,North,0,5.0,10.0,62,0.00,,---,0.18,489.00,VWS V14.01,2013-08-02 20:25:00,
2013-08-02 15:30:00,87.8,73.6,29.58,North,0,7.0,14.0,63,0.00,,---,0.18,298.00,VWS V14.01,2013-08-02 20:30:00,
2013-08-02 15:35:00,87.4,73.3,29.58,North,0,10.0,14.0,63,0.00,,---,0.18,235.00,VWS V14.01,2013-08-02 20:35:00,
2013-08-02 15:40:00,87.2,74.0,29.58,North,0,5.0,12.0,65,0.00,,---,0.18,294.00,VWS V14.01,2013-08-02 20:40:00,
2013-08-02 15:45:00,87.0,73.4,29.59,North,0,5.0,8.0,64,0.00,,---,0.18,293.00,VWS V14.01,2013-08-02 20:45:00,
2013-08-02 15:50:00,87.0,74.3,29.59,North,0,8.0,10.0,66,0.00,,---,0.18,255.00,VWS V14.01,2013-08-02 20:50:00,
2013-08-02 15:55:00,87.2,74.5,29.59,North,0,6.0,10.0,66,0.00,,---,0.18,255.00,VWS V14.01,2013-08-02 20:55:00,
2013-08-02 16:00:00,87.0,73.8,29.58,North,0,6.0,10.0,65,0.00,,---,0.18,255.00,VWS V14.01,2013-08-02 21:00:00,
2013-08-02 16:05:00,87.2,74.0,29.58,North,0,6.0,11.0,65,0.00,,---,0.18,255.00,VWS V14.01,2013-08-02 21:05:00,
2013-08-02 16:10:00,87.6,74.4,29.58,North,0,5.0,8.0,65,0.00,,---,0.18,352.00,VWS V14.01,2013-08-02 21:10:00,
2013-08-02 16:15:00,87.8,73.6,29.59,North,0,6.0,10.0,63,0.00,,---,0.18,352.00,VWS V14.01,2013-08-02 21:15:00,
2013-08-02 16:20:00,87.6,73.0,29.59,North,0,5.0,8.0,62,0.00,,---,0.18,317.00,VWS V14.01,2013-08-02 21:20:00,
2013-08-02 16:25:00,87.6,73.5,29.59,North,0,5.0,8.0,63,0.00,,---,0.18,308.00,VWS V14.01,2013-08-02 21:25:00,
2013-08-02 16:30:00,88.0,73.8,29.59,North,0,5.0,8.0,63,0.00,,---,0.18,475.00,VWS V14.01,2013-08-02 21:30:00,
2013-08-02 16:35:00,88.2,73.5,29.59,North,0,5.0,7.0,62,0.00,,---,0.18,475.00,VWS V14.01,2013-08-02 21:35:00,
2013-08-02 16:40:00,88.2,74.5,29.59,North,0,5.0,7.0,64,0.00,,---,0.18,475.00,VWS V14.01,2013-08-02 21:40:00,
2013-08-02 16:45:00,88.0,73.8,29.59,North,0,4.0,7.0,63,0.00,,---,0.18,242.00,VWS V14.01,2013-08-02 21:45:00,
2013-08-02 16:50:00,88.2,73.5,29.59,North,0,1.0,4.0,62,0.00,,---,0.18,305.00,VWS V14.01,2013-08-02 21:50:00,
2013-08-02 16:55:00,88.6,73.4,29.59,North,0,0.0,0.0,61,0.00,,---,0.18,466.00,VWS V14.01,2013-08-02 21:55:00,
2013-08-02 17:00:00,89.3,73.6,29.58,North,0,1.0,6.0,60,0.00,,---,0.18,345.00,VWS V14.01,2013-08-02 22:00:00,
2013-08-02 17:05:00,89.3,73.1,29.58,NNW,338,0.0,2.0,59,0.00,,---,0.18,328.00,VWS V14.01,2013-08-02 22:05:00,
2013-08-02 17:10:00,89.5,73.3,29.58,NNW,338,0.0,0.0,59,0.00,,---,0.18,292.00,VWS V14.01,2013-08-02 22:10:00,
2013-08-02 17:15:00,89.5,73.3,29.58,NNW,338,0.0,0.0,59,0.00,,---,0.18,243.00,VWS V14.01,2013-08-02 22:15:00,
2013-08-02 17:20:00,89.5,73.3,29.58,NNW,338,0.0,0.0,59,0.00,,---,0.18,226.00,VWS V14.01,2013-08-02 22:20:00,
2013-08-02 17:25:00,89.5,72.8,29.58,NNW,338,0.0,0.0,58,0.00,,---,0.18,226.00,VWS V14.01,2013-08-02 22:25:00,
2013-08-02 17:30:00,89.7,73.0,29.58,NNW,338,0.0,0.0,58,0.00,,---,0.18,243.00,VWS V14.01,2013-08-02 22:30:00,
2013-08-02 17:35:00,89.3,73.6,29.58,North,0,0.0,1.0,60,0.00,,---,0.18,220.00,VWS V14.01,2013-08-02 22:35:00,
2013-08-02 17:40:00,89.0,73.8,29.58,North,0,0.0,0.0,61,0.00,,---,0.18,220.00,VWS V14.01,2013-08-02 22:40:00,
2013-08-02 17:45:00,89.3,74.1,29.58,North,0,0.0,0.0,61,0.00,,---,0.18,223.00,VWS V14.01,2013-08-02 22:45:00,
2013-08-02 17:50:00,89.0,74.3,29.58,North,0,0.0,0.0,62,0.00,,---,0.18,223.00,VWS V14.01,2013-08-02 22:50:00,
2013-08-02 17:55:00,88.6,73.4,29.58,North,0,0.0,2.0,61,0.00,,---,0.18,223.00,VWS V14.01,2013-08-02 22:55:00,
2013-08-02 18:00:00,88.4,73.2,29.59,North,0,2.0,5.0,61,0.00,,---,0.18,178.00,VWS V14.01,2013-08-02 23:00:00,
2013-08-02 18:05:00,88.2,73.1,29.59,WNW,292,1.0,2.0,61,0.00,,---,0.18,164.00,VWS V14.01,2013-08-02 23:05:00,
2013-08-02 18:10:00,88.0,73.4,29.59,WNW,292,0.0,0.0,62,0.00,,---,0.18,151.00,VWS V14.01,2013-08-02 23:10:00,
2013-08-02 18:15:00,87.8,73.2,29.59,North,0,3.0,5.0,62,0.00,,---,0.18,147.00,VWS V14.01,2013-08-02 23:15:00,
2013-08-02 18:20:00,87.6,73.0,29.59,WNW,292,3.0,5.0,62,0.00,,---,0.18,144.00,VWS V14.01,2013-08-02 23:20:00,
2013-08-02 18:25:00,87.4,72.8,29.59,South,180,2.0,3.0,62,0.00,,---,0.18,132.00,VWS V14.01,2013-08-02 23:25:00,
2013-08-02 18:30:00,87.4,73.3,29.59,North,0,2.0,3.0,63,0.00,,---,0.18,111.00,VWS V14.01,2013-08-02 23:30:00,
2013-08-02 18:35:00,87.4,73.3,29.59,WNW,292,2.0,3.0,63,0.00,,---,0.18,111.00,VWS V14.01,2013-08-02 23:35:00,
2013-08-02 18:40:00,87.2,74.0,29.59,WSW,248,4.0,6.0,65,0.00,,---,0.18,88.00,VWS V14.01,2013-08-02 23:40:00,
2013-08-02 18:45:00,86.7,75.3,29.60,West,270,3.0,6.0,69,0.00,,---,0.18,73.00,VWS V14.01,2013-08-02 23:45:00,
2013-08-02 18:50:00,86.1,74.8,29.60,South,180,3.0,6.0,69,0.00,,---,0.18,61.00,VWS V14.01,2013-08-02 23:50:00,
2013-08-02 18:55:00,85.7,74.4,29.60,WNW,292,3.0,5.0,69,0.00,,---,0.18,58.00,VWS V14.01,2013-08-02 23:55:00,
2013-08-02 19:00:00,85.5,74.6,29.60,SW,225,3.0,5.0,70,0.00,,---,0.18,65.00,VWS V14.01,2013-08-03 00:00:00,
2013-08-02 19:05:00,85.5,75.4,29.60,NW,315,2.0,3.0,72,0.00,,---,0.18,61.00,VWS V14.01,2013-08-03 00:05:00,
2013-08-02 19:10:00,85.3,75.2,29.60,NNW,338,1.0,2.0,72,0.00,,---,0.18,62.00,VWS V14.01,2013-08-03 00:10:00,
2013-08-02 19:15:00,85.1,74.6,29.60,WSW,248,3.0,5.0,71,0.00,,---,0.18,55.00,VWS V14.01,2013-08-03 00:15:00,
2013-08-02 19:20:00,84.9,74.4,29.60,NW,315,3.0,5.0,71,0.00,,---,0.18,48.00,VWS V14.01,2013-08-03 00:20:00,
2013-08-02 19:25:00,84.9,74.9,29.60,North,0,3.0,4.0,72,0.00,,---,0.18,48.00,VWS V14.01,2013-08-03 00:25:00,
2013-08-02 19:30:00,84.7,74.7,29.60,NNW,338,4.0,6.0,72,0.00,,---,0.18,44.00,VWS V14.01,2013-08-03 00:30:00,
2013-08-02 19:35:00,84.7,75.1,29.60,WNW,292,3.0,5.0,73,0.00,,---,0.18,41.00,VWS V14.01,2013-08-03 00:35:00,
2013-08-02 19:40:00,84.5,74.9,29.60,NNW,338,4.0,6.0,73,0.00,,---,0.18,34.00,VWS V14.01,2013-08-03 00:40:00,
2013-08-02 19:45:00,84.3,75.1,29.60,North,0,5.0,6.0,74,0.00,,---,0.18,35.00,VWS V14.01,2013-08-03 00:45:00,
2013-08-02 19:50:00,84.1,74.9,29.60,North,0,6.0,7.0,74,0.00,,---,0.18,37.00,VWS V14.01,2013-08-03 00:50:00,
2013-08-02 19:55:00,84.1,74.9,29.60,North,0,6.0,8.0,74,0.00,,---,0.18,46.00,VWS V14.01,2013-08-03 00:55:00,
2013-08-02 20:00:00,84.0,75.2,29.60,NNW,338,6.0,8.0,75,0.00,,---,0.18,55.00,VWS V14.01,2013-08-03 01:00:00,
2013-08-02 20:05:00,84.0,75.2,29.60,NNW,338,6.0,8.0,75,0.00,,---,0.18,53.00,VWS V14.01,2013-08-03 01:05:00,
2013-08-02 20:10:00,84.0,74.8,29.60,North,0,6.0,8.0,74,0.00,,---,0.18,34.00,VWS V14.01,2013-08-03 01:10:00,
2013-08-02 20:15:00,83.8,75.0,29.61,North,0,6.0,10.0,75,0.00,,---,0.18,19.00,VWS V14.01,2013-08-03 01:15:00,
2013-08-02 20:20:00,82.8,74.9,29.61,North,0,14.0,22.0,77,0.00,,---,0.18,21.00,VWS V14.01,2013-08-03 01:20:00,
2013-08-02 20:25:00,81.6,75.2,29.61,North,0,13.0,20.0,81,0.00,,---,0.18,15.00,VWS V14.01,2013-08-03 01:25:00,
2013-08-02 20:30:00,81.1,75.1,29.62,North,0,14.0,20.0,82,0.00,,---,0.18,10.00,VWS V14.01,2013-08-03 01:30:00,
2013-08-02 20:35:00,80.5,74.5,29.62,North,0,12.0,17.0,82,0.00,,---,0.18,6.00,VWS V14.01,2013-08-03 01:35:00,
2013-08-02 20:40:00,80.3,74.7,29.62,North,0,11.0,16.0,83,0.00,,---,0.18,0.00,VWS V14.01,2013-08-03 01:40:00,
2013-08-02 20:45:00,79.9,74.6,29.62,North,0,9.0,14.0,84,0.00,,---,0.18,0.00,VWS V14.01,2013-08-03 01:45:00,
2013-08-02 20:50:00,79.8,74.5,29.62,North,0,13.0,20.0,84,0.00,,---,0.18,0.00,VWS V14.01,2013-08-03 01:50:00,
2013-08-02 20:55:00,79.4,74.2,29.62,North,0,11.0,16.0,84,0.00,,---,0.18,0.00,VWS V14.01,2013-08-03 01:55:00,
2013-08-02 21:00:00,79.2,73.9,29.62,North,0,13.0,16.0,84,0.00,,---,0.18,0.00,VWS V14.01,2013-08-03 02:00:00,
2013-08-02 21:05:00,79.0,73.8,29.62,North,0,11.0,14.0,84,0.00,,---,0.18,0.00,VWS V14.01,2013-08-03 02:05:00,
2013-08-02 21:10:00,79.0,74.1,29.62,North,0,13.0,16.0,85,0.00,,---,0.18,0.00,VWS V14.01,2013-08-03 02:10:00,
2013-08-02 21:15:00,78.6,74.1,29.61,NNW,338,12.0,14.0,86,0.00,,---,0.18,0.00,VWS V14.01,2013-08-03 02:15:00,
2013-08-02 21:20:00,78.5,74.0,29.61,North,0,10.0,16.0,86,0.00,,---,0.18,0.00,VWS V14.01,2013-08-03 02:20:00,
2013-08-02 21:25:00,78.5,74.0,29.61,North,0,11.0,14.0,86,0.00,,---,0.18,0.00,VWS V14.01,2013-08-03 02:25:00,
2013-08-02 21:30:00,78.3,73.8,29.62,North,0,13.0,17.0,86,0.00,,---,0.18,0.00,VWS V14.01,2013-08-03 02:30:00,
2013-08-02 21:35:00,78.1,73.6,29.62,North,0,11.0,14.0,86,0.00,,---,0.18,0.00,VWS V14.01,2013-08-03 02:35:00,
2013-08-02 21:40:00,77.9,73.4,29.62,North,0,13.0,17.0,86,0.00,,---,0.18,0.00,VWS V14.01,2013-08-03 02:40:00,
2013-08-02 21:45:00,77.9,73.7,29.62,NNW,338,13.0,17.0,87,0.00,,---,0.18,0.00,VWS V14.01,2013-08-03 02:45:00,
2013-08-02 21:50:00,77.7,73.5,29.62,North,0,11.0,14.0,87,0.00,,---,0.18,0.00,VWS V14.01,2013-08-03 02:50:00,
2013-08-02 21:55:00,77.6,73.4,29.62,North,0,10.0,16.0,87,0.00,,---,0.18,0.00,VWS V14.01,2013-08-03 02:55:00,
2013-08-02 22:00:00,77.6,73.8,29.64,North,0,8.0,11.0,88,0.00,,---,0.18,0.00,VWS V14.01,2013-08-03 03:00:00,
2013-08-02 22:05:00,77.6,73.8,29.64,North,0,7.0,12.0,88,0.00,,---,0.18,0.00,VWS V14.01,2013-08-03 03:05:00,
2013-08-02 22:10:00,77.6,73.4,29.64,North,0,7.0,11.0,87,0.00,,---,0.18,0.00,VWS V14.01,2013-08-03 03:10:00,
2013-08-02 22:15:00,77.4,73.2,29.64,North,0,9.0,16.0,87,0.00,,---,0.18,0.00,VWS V14.01,2013-08-03 03:15:00,
2013-08-02 22:20:00,77.4,72.9,29.64,North,0,9.0,14.0,86,0.00,,---,0.18,0.00,VWS V14.01,2013-08-03 03:20:00,
2013-08-02 22:25:00,77.4,72.9,29.64,North,0,7.0,12.0,86,0.00,,---,0.18,0.00,VWS V14.01,2013-08-03 03:25:00,
2013-08-02 22:30:00,77.4,72.9,29.64,NNW,338,6.0,11.0,86,0.00,,---,0.18,0.00,VWS V14.01,2013-08-03 03:30:00,
2013-08-02 22:35:00,77.2,72.7,29.64,North,0,7.0,11.0,86,0.00,,---,0.18,0.00,VWS V14.01,2013-08-03 03:35:00,
2013-08-02 22:40:00,77.2,73.0,29.64,North,0,4.0,6.0,87,0.00,,---,0.18,0.00,VWS V14.01,2013-08-03 03:40:00,
2013-08-02 22:45:00,76.5,72.3,29.67,North,0,16.0,27.0,87,0.00,,---,0.18,0.00,VWS V14.01,2013-08-03 03:45:00,
2013-08-02 22:50:00,76.8,69.8,29.67,North,0,12.0,17.0,79,0.00,,---,0.18,0.00,VWS V14.01,2013-08-03 03:50:00,
2013-08-02 22:55:00,76.3,68.2,29.67,North,0,16.0,20.0,76,0.00,,---,0.18,0.00,VWS V14.01,2013-08-03 03:55:00,
2013-08-02 23:00:00,75.6,67.1,29.69,North,0,14.0,20.0,75,0.00,,---,0.18,0.00,VWS V14.01,2013-08-03 04:00:00,
2013-08-02 23:05:00,74.7,67.0,29.69,North,0,13.0,17.0,77,0.02,,---,0.20,0.00,VWS V14.01,2013-08-03 04:05:00,
2013-08-02 23:10:00,73.3,67.5,29.69,North,0,16.0,21.0,82,0.12,,---,0.30,0.00,VWS V14.01,2013-08-03 04:10:00,
2013-08-02 23:15:00,72.0,68.3,29.68,North,0,19.0,26.0,88,0.35,,---,0.53,0.00,VWS V14.01,2013-08-03 04:15:00,
2013-08-02 23:20:00,71.5,67.8,29.68,North,0,11.0,17.0,88,0.46,,---,0.64,0.00,VWS V14.01,2013-08-03 04:20:00,
2013-08-02 23:25:00,71.1,68.0,29.68,North,0,8.0,12.0,90,0.50,,---,0.68,0.00,VWS V14.01,2013-08-03 04:25:00,
2013-08-02 23:30:00,70.8,67.7,29.69,North,0,6.0,10.0,90,0.50,,---,0.68,0.00,VWS V14.01,2013-08-03 04:30:00,
2013-08-02 23:35:00,70.6,68.2,29.69,North,0,3.0,7.0,92,0.50,,---,0.68,0.00,VWS V14.01,2013-08-03 04:35:00,
2013-08-02 23:40:00,70.4,68.3,29.69,NNW,338,1.0,3.0,93,0.50,,---,0.68,0.00,VWS V14.01,2013-08-03 04:40:00,
2013-08-02 23:45:00,70.3,68.2,29.67,NNW,338,0.0,0.0,93,0.50,,---,0.68,0.00,VWS V14.01,2013-08-03 04:45:00,
2013-08-02 23:50:00,70.4,68.3,29.67,NNW,338,0.0,0.0,93,0.50,,---,0.68,0.00,VWS V14.01,2013-08-03 04:50:00,
2013-08-02 23:55:00,70.6,68.8,29.67,North,0,1.0,3.0,94,0.51,,---,0.69,0.00,VWS V14.01,2013-08-03 04:55:00,